Location: B?ezina
(49.8085°N, 13.6013°E)
Time: 00:39:13
(UTC+00:00)

USA 234 - Pass Details

Date: 19 May 2025
Orbit: 1097 x 1111 km, 123.0° (Epoch: 13 June)

Event Time Altitude Azimuth Distance (km) Brightness Sun altitude
Rises 20:46:51 0° 57° (ENE) 3,925 6.2 -14.1°
Reaches altitude 10° 20:49:20 10° 57° (ENE) 2,967 5.5 -14.3°
Maximum altitude 20:55:54 90° 345° (NNW) 1,111 3.3 -14.8°
Drops below altitude 10° 21:02:29 10° 240° (WSW) 2,967 5.5 -15.4°
Sets 21:04:58 0° 241° (WSW) 3,924 6.2 -15.6°
